COSMOS 2251 DEB, 34852

Orbit data source: Space-Track

COSMOS 2251 DEB, 34852 is space debris in LEO originally from a launch on Wed, 16 Jun 1993 UTC launched from the Plesetsk Missile And Space Complex (PKMTR). The debris from Iridium 33, an American commercial communications satellite, has been tracked extensively since its accidental collision with the defunct Russian satellite Cosmos 2251 in 2009. This event, occurring at high speed in low Earth orbit (LEO), generated thousands of pieces of space debris, significantly increasing the risk of further collisions. The Iridium 33 debris cloud has impacted space traffic management and orbital debris mitigation strategies, making it a subject of ongoing study in space situational awareness.

Loading next visibility...
Identifier
34852, 1993-036ABW
Orbit
LEO
Country
Flag of CISCIS
Related business
Manufacturer
Unknown
Mission
Spacecraft
Bus & Motor
Unknown
Mass
Unknown
Launch date (UTC)
1993-06-16 (32 years ago)
Launch vehicle
Unknown
Launch site
Plesetsk Missile And Space Complex (PKMTR)
Object type
Payload
Rocket body
Debris
Shape & HBR
Unknown shape, 0.1 m
Radar Cross Section
Small (<0.1 m²)

Expand to show TLE details & history
Last TLE update: 2 days ago

TLE from 2 days ago
0 COSMOS 2251 DEB
1 34852U 93036ABW 25284.98930297  .00000449  00000-0  16016-3 0  9995
2 34852  74.0353  16.5347 0015643 141.8682 218.3582 14.36937499866476
Epoch: 2025-10-11T23:44Z
TLE epoch observation values (Epoch: 2025-10-11T23:44:35.776Z)
Latitude
0.00002°
Longitude
-0.42724°
Altitude
780.022 km
Speed
7.459 km/s
True Right ascension
01h 06m 08s
True Declination
0° 00' 00"
Sunlit
Object was in full shadow at epoch
Visualization orbit readout
Latitude
Unknown
Longitude
Unknown
Altitude
Unknown
Speed
Unknown
Apparent Right ascension
Unknown
Apparent Declination
Unknown
Sunlit
N/A
Visualization observer readout
Local Sidereal Time
06:13:26
Azimuth
Unknown
Elevation
Unknown
Doppler factor
Unknown
Orbital elements
Apogee altitude
777.434 km
Perigee altitude
755.082 km
Semi-major axis
7,144.395 km
Eccentricity
0.00156
Inclination
74.0353°
RAAN
16.5347°
Arg. of periapsis
141.8682°
True anomaly
218.24713°
Mean anomaly
218.3582°
Eccentric anomaly
218.30265°
Mean motion
3.59414 °/min
Orbital period
100.16 mins
BSTAR
0.00016016

Documentation

Showing up to 5 results
|